Regional Weather Roundup
Issued by NWS Cleveland, OH

Home | Current Version | Previous Version | Graphics & Text | Print | Product List | Glossary On
Versions: 1 2 3 4 5 6 7 8 9 10 11 12 13 14 15 16 17 18 19 20 21 22 23 24 25 26 27 28 29 30 31 32 33 34 35 36 37 38 39 40 41 42 43 44 45 46 47 48 49 50
000
ASUS41 KCLE 292210
RWRCLE
OHIO REGIONAL WEATHER ROUNDUP
NATIONAL WEATHER SERVICE CLEVELAND, OH
600 PM EDT MON JUN 29 2015

NOTE: "FAIR" INDICATES FEW OR NO CLOUDS BELOW 12,000 FEET WITH NO
SIGNIFICANT WEATHER AND/OR OBSTRUCTIONS TO VISIBILITY.

OHZ001>008-015>018-024>027-034-035-043-044-292300-
   NORTHWEST OHIO

CITY           SKY/WX    TMP DP  RH WIND       PRES   REMARKS
DEFIANCE       CLOUDY    64  59  83 E7        29.84F
FINDLAY        CLOUDY    63  58  83 E10       29.83S
TOLEDO EXPRESS CLOUDY    65  57  75 S8        29.84F
TOLEDO EXEC    PTSUNNY   69  56  62 SE17      29.85F
LIMA           CLOUDY    62  61  96 E7        29.82S FOG
$$

OHZ009>014-019>023-028>033-038-089-292300-
   NORTHEAST OHIO

CITY           SKY/WX    TMP DP  RH WIND       PRES   REMARKS
CLE-HOPKINS    LGT RAIN  68  59  73 SE8       29.90S
CLE-LAKEFRONT  CLOUDY    70  56  61 SE10      29.87S
CUY CO. ARPT   NOT AVBL
LORAIN-ELYRIA  LGT RAIN  66  60  81 SE7       29.88F
ASHTABULA      CLOUDY    70  55  59 S6        29.90F
AKRON-CANTON   LGT RAIN  64  59  83 SE7       29.90S
WOOSTER        RAIN      61  58  90 E10       29.89F FOG
MANSFIELD      CLOUDY    61  60  97 E9        29.86F
YOUNGSTOWN     LGT RAIN  67  60  78 CALM      29.91S
$$

OHZ042-051>053-060>062-070>072-077>081-292300-
  SOUTHWEST OHIO

CITY           SKY/WX    TMP DP  RH WIND       PRES   REMARKS
CINC-COVINGTON PTSUNNY   75  65  70 NW12      29.79R
CINC-LUNKEN    MOSUNNY   78  66  66 VRB7      29.78R
HAMILTON       MOSUNNY   76  68  76 VRB5      29.79R
DAYTON         CLOUDY    70  66  87 NW6       29.81S
WRIGHT-PAT AFB PTSUNNY   70  64  81 SW2       29.80S
DAYTON GENERAL CLOUDY    72  66  81 CALM      29.79S
WILMINGTON     TSTM      71  67  87 CALM      29.79S FOG
$$

OHZ036-037-039>041-045>050-054>059-063>069-073>076-082>088-292300-
  CENTRAL AND SOUTHEAST OHIO

CITY           SKY/WX    TMP DP  RH WIND       PRES   REMARKS
COLUMBUS       CLOUDY    65  63  93 SE8       29.81F
OSU AIRPORT    LGT RAIN  64  62  93 SE3       29.82S FOG
BOLTON FIELD   CLOUDY    64  64 100 SE5       29.82F
RICKENBACK AFB CLOUDY    67  62  85 SE8       29.81S
NEWARK         CLOUDY    65  61  87 E8        29.83S
MARION         CLOUDY    62  60  93 SE10      29.83F FOG
LANCASTER      PTSUNNY   67  62  84 S8        29.82F
ZANESVILLE     NOT AVBL
NEW PHILLY     LGT RAIN  65  61  87 CALM      29.89S FOG
$$



USA.gov is the U.S. government's official web portal to all federal, state and local government web resources and services.